Lake Powell Weather Center

Moon Phase Calendar



Lake Powell Water Level
Online Cameras

 


      

Current Conditions in Clay Hills Crossing
6/25/2024 10:13:53 AM

85°F
Feels Like 82
Clouds
Humidity
29%
Pressure
29.83"
Wind
1.1 mph (NW)
Dew Point
49°F
UV Index
5/10 (Moderate)
Visibility
6 mi

Hourly Forecast

Date & Time Tue, Jun 25
10:00 AM
Tue, Jun 25
11:00 AM
Tue, Jun 25
12:00 PM
Tue, Jun 25
1:00 PM
Tue, Jun 25
2:00 PM
Tue, Jun 25
3:00 PM
Tue, Jun 25
4:00 PM
Tue, Jun 25
5:00 PM
Tue, Jun 25
6:00 PM
Tue, Jun 25
7:00 PM
Tue, Jun 25
8:00 PM
Tue, Jun 25
9:00 PM
Tue, Jun 25
10:00 PM
Tue, Jun 25
11:00 PM
Wed, Jun 26
12:00 AM
Wed, Jun 26
1:00 AM
Wed, Jun 26
2:00 AM
Wed, Jun 26
3:00 AM
Wed, Jun 26
4:00 AM
Wed, Jun 26
5:00 AM
Wed, Jun 26
6:00 AM
Wed, Jun 26
7:00 AM
Wed, Jun 26
8:00 AM
Wed, Jun 26
9:00 AM
Wed, Jun 26
10:00 AM
Wed, Jun 26
11:00 AM
Wed, Jun 26
12:00 PM
Wed, Jun 26
1:00 PM
Wed, Jun 26
2:00 PM
Wed, Jun 26
3:00 PM
Wed, Jun 26
4:00 PM
Wed, Jun 26
5:00 PM
Wed, Jun 26
6:00 PM
Wed, Jun 26
7:00 PM
Wed, Jun 26
8:00 PM
Wed, Jun 26
9:00 PM
Wed, Jun 26
10:00 PM
Wed, Jun 26
11:00 PM
Thu, Jun 27
12:00 AM
Thu, Jun 27
1:00 AM
Thu, Jun 27
2:00 AM
Thu, Jun 27
3:00 AM
Thu, Jun 27
4:00 AM
Thu, Jun 27
5:00 AM
Thu, Jun 27
6:00 AM
Thu, Jun 27
7:00 AM
Thu, Jun 27
8:00 AM
Thu, Jun 27
9:00 AM
Condition
Clouds

Clouds

Clouds

Clouds

Clouds

Rain

Rain

Clouds

Rain

Clouds

Clouds

Clouds

Clouds

Clouds

Clouds

Clouds

Clouds

Clouds

Clouds

Clouds

Clouds

Clouds

Clouds

Clouds

Clouds

Clouds

Clouds

Clouds

Clouds

Clouds

Clouds

Clouds

Clouds

Clouds

Clouds

Clouds

Rain

Rain

Clouds

Clear

Clouds

Rain

Rain

Clouds

Clouds

Clouds

Clouds

Clouds
Temperature 85°F85°F87°F89°F93°F94°F92°F95°F79°F80°F82°F81°F81°F81°F80°F78°F77°F76°F75°F75°F75°F76°F77°F80°F82°F85°F87°F89°F91°F93°F94°F85°F86°F89°F88°F85°F81°F81°F79°F77°F76°F75°F74°F74°F74°F75°F77°F80°F
Feels Like 82°F83°F84°F86°F89°F90°F88°F91°F79°F80°F81°F80°F80°F80°F80°F77°F76°F76°F75°F74°F74°F75°F76°F80°F81°F83°F84°F86°F88°F89°F91°F83°F83°F85°F85°F83°F80°F80°F79°F77°F76°F74°F74°F73°F73°F74°F77°F80°F
Cloudiness 20%20%19%12%18%25%46%52%53%99%98%93%96%97%97%100%100%100%100%100%97%93%93%89%68%58%51%17%16%16%14%28%39%87%57%56%60%54%47%8%47%69%58%53%57%53%54%61%
Visibility 6 mi6 mi6 mi6 mi6 mi6 mi6 mi6 mi6 mi6 mi6 mi6 mi6 mi6 mi6 mi6 mi6 mi6 mi6 mi6 mi6 mi6 mi6 mi6 mi6 mi6 mi6 mi6 mi6 mi6 mi6 mi6 mi6 mi6 mi6 mi6 mi6 mi6 mi6 mi6 mi6 mi6 mi6 mi6 mi6 mi6 mi6 mi6 mi
Precipitation 0%0%0%0%0%20%38%7%74%52%17%11%0%0%0%0%0%0%0%0%0%0%0%0%0%0%0%0%0%0%0%0%0%0%0%0%20%39%19%7%0%21%29%0%0%0%0%0%
Humidity 29%28%26%23%19%18%20%16%41%40%34%35%35%34%37%42%44%44%46%46%46%44%42%37%33%30%27%25%23%21%20%30%27%21%22%27%34%35%36%40%42%45%46%47%46%44%40%35%
Dew Point 49°F48°F48°F47°F44°F45°F46°F46°F55°F55°F53°F53°F52°F52°F53°F55°F55°F55°F55°F55°F54°F54°F54°F53°F53°F52°F51°F51°F50°F50°F49°F51°F50°F46°F47°F49°F52°F52°F53°F53°F54°F54°F54°F54°F54°F54°F53°F52°F
Pressure 29.83"29.83"29.83"29.8"29.77"29.74"29.71"29.68"29.83"29.77"29.8"29.83"29.83"29.85"29.85"29.85"29.85"29.85"29.85"29.85"29.85"29.88"29.88"29.85"29.85"29.85"29.83"29.8"29.77"29.74"29.68"29.74"29.71"29.68"29.68"29.68"29.74"29.71"29.74"29.74"29.74"29.74"29.74"29.74"29.74"29.74"29.74"29.74"
Wind Speed 1.1 mph1 mph1.7 mph4.6 mph9.9 mph6.5 mph5.4 mph11.4 mph28.8 mph18.6 mph2.6 mph5.2 mph6.4 mph4.9 mph11.2 mph13.6 mph8.1 mph3.1 mph4.8 mph3.2 mph1.2 mph3.3 mph3.5 mph5.1 mph5.4 mph6 mph6.9 mph7.5 mph9.1 mph10.1 mph11.5 mph26.1 mph19.9 mph14.4 mph11.3 mph5.6 mph3 mph1.7 mph6.3 mph4.4 mph4.6 mph2.1 mph0.6 mph0.7 mph2.6 mph2.1 mph1.4 mph5 mph
Wind
Direction
314°
NW
13°
NNE
89°
E
96°
E
100°
E
130°
SE
40°
NE
331°
NNW
310°
NW
329°
NNW
307°
NW
205°
SSW
256°
WSW
226°
SW
212°
SSW
240°
WSW
282°
WNW
258°
WSW
292°
WNW
288°
WNW
254°
WSW
216°
SW
227°
SW
208°
SSW
194°
SSW
189°
S
194°
SSW
201°
SSW
206°
SSW
194°
SSW
204°
SSW
304°
NW
304°
NW
323°
NW
310°
NW
254°
WSW
252°
WSW
59°
ENE
36°
NE
13°
NNE

N
335°
NNW
18°
NNE
86°
E
74°
ENE
73°
ENE
170°
S
236°
SW

Daily Forecast

Date High Low Precip. Humidity
Today
Jun 25

Rain
95 °F
75 °F
74%
23%
Wednesday
Jun 26

Rain
94 °F
75 °F
39%
25%
Thursday
Jun 27

Rain
92 °F
74 °F
29%
22%
Friday
Jun 28

Clear
94 °F
72 °F
0%
17%
Saturday
Jun 29

Clear
94 °F
73 °F
0%
17%
Sunday
Jun 30

Clear
95 °F
77 °F
0%
12%
Monday
Jul 1

Clear
95 °F
71 °F
0%
10%
Tuesday
Jul 2

Clear
97 °F
73 °F
0%
14%
Wednesday
Jul 3

Clear
100 °F
75 °F
0%
12%
Thursday
Jul 4

Clear
101 °F
77 °F
0%
14%
Friday
Jul 5

Clear
97 °F
76 °F
0%
23%
Saturday
Jul 6

Clouds
98 °F
77 °F
0%
21%
Sunday
Jul 7

Clouds
90 °F
76 °F
0%
28%
Monday
Jul 8

Clouds
94 °F
74 °F
0%
30%
Tuesday
Jul 9

Clouds
95 °F
75 °F
0%
19%
Wednesday
Jul 10

Clear
93 °F
71 °F
0%
27%

Temperature 8-14 Day Outlook



Precipitation 8-14 Day Outlook






About Us
Contact Us
Site Map
Search Site
Advertise With Us
   
Powell.USLakes.info
THE LAKE POWELL WEBSITE

Copyright 2024, Lakes Online
Privacy    |    Legal